Date String (YYYY-MM-DD hh:mm:ss) UTC,Instrument flags,Ambient pressure (hPa),Sample flow (lpm),Bypass flow (lpm),Sample temperature (°C),Ambient temperature (°C),ASC tube jacket temperature (°C),LED temperature (°C),Box temperature (°C),Sample RH (%),Span deviation,Mass concentration (μg/m³),Mass concentration (μg/m³),Mass concentration (μg/m³)
DateTimeUTC,F1_M11,P_M11,Q1_M11,Q2_M11,T1_M11,T2_M11,T3_M11,T4_M11,T5_M11,U1_M11,ZSPAN_M11,X0_M11,X2_M11,X1_M11
2021-09-23 15:00:00,,0829.1,4.98,0.00,30.5,29.6,00.0,39.5,32.2,09.1,0000.0,0008.99,0002.87,0001.38
2021-09-23 15:01:00,,0829.1,5.01,0.00,30.5,29.7,00.0,39.5,32.3,09.1,0000.0,0009.08,0002.77,0001.36
2021-09-23 15:02:00,,0829.1,4.99,0.00,30.5,29.7,00.0,39.6,32.3,08.8,0000.0,0009.00,0002.67,0001.34
2021-09-23 15:03:00,,0829.1,5.00,0.00,30.6,29.7,00.0,39.6,32.3,08.7,0000.0,0009.05,0002.55,0001.32
2021-09-23 15:04:00,,0829.0,5.01,0.00,30.6,29.8,00.0,39.6,32.3,08.8,0000.0,0008.14,0002.45,0001.30
2021-09-23 15:05:00,,0829.0,5.00,0.00,30.6,29.8,00.0,39.6,32.3,08.8,0000.0,0007.29,0002.31,0001.29
2021-09-23 15:06:00,,0829.0,4.99,0.00,30.6,29.8,00.0,39.6,32.4,08.8,0000.0,0006.80,0002.19,0001.27
2021-09-23 15:07:00,,0829.1,5.00,0.00,30.6,29.5,00.0,39.6,32.3,08.8,0000.0,0005.06,0002.08,0001.26
2021-09-23 15:08:00,,0829.0,4.99,0.00,30.6,27.7,00.0,39.6,31.9,08.7,0000.0,0005.41,0002.05,0001.25
2021-09-23 15:09:00,,0829.1,5.01,0.00,30.4,26.7,00.0,39.6,31.6,08.7,0000.0,0005.62,0002.03,0001.25
2021-09-23 15:10:00,,0829.1,5.01,0.00,30.3,26.9,00.0,39.6,31.6,08.9,0000.0,0005.63,0002.00,0001.25
2021-09-23 15:11:00,,0829.1,4.99,0.00,30.2,27.3,00.0,39.5,31.6,09.1,0000.0,0005.47,0001.96,0001.26
2021-09-23 15:12:00,,0829.1,5.00,0.00,30.2,27.7,00.0,39.5,31.7,09.0,0000.0,0005.03,0001.97,0001.27
2021-09-23 15:13:00,,0829.0,5.01,0.00,30.2,28.1,00.0,39.4,31.7,09.0,0000.0,0004.75,0001.95,0001.28
2021-09-23 15:14:00,,0829.1,4.99,0.00,30.2,28.3,00.0,39.4,31.8,09.5,0000.0,0004.39,0001.97,0001.29
2021-09-23 15:15:00,,0829.1,5.01,0.00,30.2,28.5,00.0,39.4,31.9,11.6,0000.0,0004.81,0002.00,0001.31
2021-09-23 15:16:00,,0829.1,5.00,0.00,30.2,28.7,00.0,39.4,31.9,11.2,0000.0,0005.95,0002.04,0001.31
2021-09-23 15:17:00,,0829.1,5.00,0.00,30.2,28.9,00.0,39.4,31.9,09.8,0000.0,0005.94,0002.03,0001.33
2021-09-23 15:18:00,,0829.1,5.01,0.00,30.3,29.0,00.0,39.4,32.0,09.6,0000.0,0005.99,0002.06,0001.36
2021-09-23 15:19:00,,0829.1,4.99,0.00,30.3,29.1,00.0,39.4,32.0,09.4,0000.0,0005.64,0002.05,0001.38
2021-09-23 15:20:00,,0829.1,5.01,0.00,30.3,29.2,00.0,39.4,32.0,09.2,0000.0,0005.35,0002.08,0001.40
2021-09-23 15:21:00,,0829.1,5.01,0.00,30.3,29.3,00.0,39.4,32.1,09.3,0000.0,0005.35,0002.12,0001.42
2021-09-23 15:22:00,,0829.0,4.99,0.00,30.3,29.3,00.0,39.4,32.1,09.0,0000.0,0005.43,0002.17,0001.43
2021-09-23 15:23:00,,0829.1,5.00,0.00,30.4,29.4,00.0,39.4,32.1,08.9,0000.0,0005.41,0002.13,0001.42
2021-09-23 15:24:00,,0829.2,5.00,0.00,30.4,29.4,00.0,39.4,32.2,09.1,0000.0,0005.49,0002.13,0001.42
2021-09-23 15:25:00,,0829.1,5.00,0.00,30.4,29.5,00.0,39.4,32.2,09.1,0000.0,0005.57,0002.11,0001.42
2021-09-23 15:26:00,,0829.1,4.98,0.00,30.5,29.6,00.0,39.5,32.2,09.0,0000.0,0005.31,0002.09,0001.42
2021-09-23 15:27:00,,0829.1,5.00,0.00,30.5,29.6,00.0,39.5,32.3,09.6,0000.0,0004.40,0002.15,0001.44
2021-09-23 15:28:00,,0829.2,5.00,0.00,30.5,29.7,00.0,39.5,32.3,09.6,0000.0,0005.00,0002.21,0001.44
2021-09-23 15:29:00,,0829.3,5.00,0.00,30.5,29.7,00.0,39.5,32.3,09.3,0000.0,0006.54,0002.23,0001.44
2021-09-23 15:30:00,,0829.3,5.00,0.00,30.6,29.4,00.0,39.5,32.2,09.4,0000.0,0007.66,0002.25,0001.44
2021-09-23 15:31:00,,0829.3,4.99,0.00,30.4,27.6,00.0,39.5,31.8,09.0,0000.0,0007.76,0002.26,0001.45
2021-09-23 15:32:00,,0829.3,4.99,0.00,30.3,26.7,00.0,39.5,31.5,09.4,0000.0,0008.11,0002.32,0001.46
2021-09-23 15:33:00,,0829.3,5.00,0.00,30.2,27.0,00.0,39.5,31.6,09.4,0000.0,0008.20,0002.31,0001.47
2021-09-23 15:34:00,,0829.3,5.01,0.00,30.2,27.4,00.0,39.4,31.7,11.1,0000.0,0008.13,0002.31,0001.50
2021-09-23 15:35:00,,0829.3,5.00,0.00,30.1,27.8,00.0,39.4,31.7,11.3,0000.0,0008.56,0002.36,0001.51
2021-09-23 15:36:00,,0829.3,4.99,0.00,30.1,28.1,00.0,39.3,31.7,11.4,0000.0,0009.15,0002.40,0001.52
2021-09-23 15:37:00,,0829.3,5.02,0.00,30.2,28.4,00.0,39.3,31.8,11.2,0000.0,0010.19,0002.46,0001.54
2021-09-23 15:38:00,,0829.3,5.00,0.00,30.2,28.6,00.0,39.3,31.9,11.0,0000.0,0010.26,0002.51,0001.57
2021-09-23 15:39:00,,0829.2,5.00,0.00,30.2,28.8,00.0,39.3,31.9,11.7,0000.0,0010.70,0002.71,0001.57
2021-09-23 15:40:00,,0829.2,5.01,0.00,30.2,28.9,00.0,39.3,32.0,12.0,0000.0,0010.67,0002.82,0001.59
2021-09-23 15:41:00,,0829.2,4.98,0.00,30.2,29.0,00.0,39.3,32.0,11.6,0000.0,0011.77,0002.90,0001.61
2021-09-23 15:42:00,,0829.2,5.01,0.00,30.3,29.1,00.0,39.3,32.0,11.4,0000.0,0012.17,0002.97,0001.62
2021-09-23 15:43:00,,0829.2,5.00,0.00,30.3,29.2,00.0,39.3,32.0,11.5,0000.0,0013.08,0002.97,0001.64
2021-09-23 15:44:00,,0829.2,5.00,0.00,30.3,29.3,00.0,39.3,32.1,11.3,0000.0,0014.41,0003.10,0001.66
2021-09-23 15:45:00,,0829.3,4.99,0.00,30.4,29.4,00.0,39.3,32.1,11.2,0000.0,0014.90,0003.17,0001.67
2021-09-23 15:46:00,,0829.3,5.01,0.00,30.4,29.4,00.0,39.4,32.1,11.4,0000.0,0015.13,0003.19,0001.69
2021-09-23 15:47:00,,0829.4,4.99,0.00,30.4,29.5,00.0,39.4,32.2,11.2,0000.0,0014.83,0003.23,0001.72
2021-09-23 15:48:00,,0829.4,5.01,0.00,30.4,29.5,00.0,39.4,32.2,11.2,0000.0,0013.81,0003.23,0001.73
2021-09-23 15:49:00,,0829.4,4.99,0.00,30.4,29.4,00.0,39.4,32.2,11.4,0000.0,0014.13,0003.24,0001.74
2021-09-23 15:50:00,,0829.5,5.01,0.00,30.4,27.7,00.0,39.4,31.8,11.3,0000.0,0014.25,0003.20,0001.75
2021-09-23 15:51:00,,0829.4,4.99,0.00,30.2,26.4,00.0,39.4,31.4,11.3,0000.0,0013.74,0003.18,0001.76
2021-09-23 15:52:00,,0829.4,5.00,0.00,30.1,26.6,00.0,39.4,31.4,11.4,0000.0,0012.05,0003.19,0001.76
2021-09-23 15:53:00,,0829.4,5.02,0.00,30.0,27.1,00.0,39.3,31.5,11.5,0000.0,0012.33,0003.21,0001.76
2021-09-23 15:54:00,,0829.4,5.01,0.00,30.0,27.5,00.0,39.3,31.5,11.5,0000.0,0011.67,0003.23,0001.76
2021-09-23 15:55:00,,0829.4,4.99,0.00,30.0,27.8,00.0,39.2,31.6,10.8,0000.0,0010.33,0003.18,0001.75
2021-09-23 15:56:00,,0829.5,5.00,0.00,30.0,28.1,00.0,39.2,31.7,11.2,0000.0,0009.97,0003.12,0001.72
2021-09-23 15:57:00,,0829.5,5.01,0.00,30.0,28.4,00.0,39.2,31.7,11.6,0000.0,0009.61,0003.06,0001.69
2021-09-23 15:58:00,,0829.5,4.99,0.00,30.0,28.6,00.0,39.2,31.8,12.1,0000.0,0009.80,0002.96,0001.66
2021-09-23 15:59:00,,0829.5,5.00,0.00,30.1,28.7,00.0,39.2,31.8,12.2,0000.0,0010.38,0002.99,0001.64
